"2016-03-24 00:00:00",1484571,8.14,82.3,6.909,1.316,4.391,99.26254,-2.579,-1.262,78.82,0,109.7,13.38,-1.84,44.3
"2016-03-24 00:00:30",1484572,7.73,81.6,7.646,1.259,4.434,99.25346,-2.602,-1.283,78.88,0,109.7,13.38,-1.86,43.6
"2016-03-24 00:01:00",1484573,7.601,81.2,6.529,1.263,4.605,99.24837,-2.615,-1.249,78.98,0,109.7,13.38,-1.87,43.2
"2016-03-24 00:01:30",1484574,7.524,86.3,6.396,1.223,4.667,99.24411,-2.626,-1.274,79.08,0,109.7,13.38,-1.88,48.3
"2016-03-24 00:02:00",1484575,6.328,90.7,9.7,1.328,3.626,99.23702,-2.644,-1.319,79.11,0,109.7,13.38,-1.90,52.7
"2016-03-24 00:02:30",1484576,6.931,85.4,8.89,1.345,4.411,99.23447,-2.651,-1.342,79.15,0,109.7,13.38,-1.91,47.4
"2016-03-24 00:03:00",1484577,7.093,96.8,12.64,1.293,3.542,99.23532,-2.648,-1.42,79.11,0,109.7,13.38,-1.91,58.8
"2016-03-24 00:03:30",1484578,5.694,89.8,13.93,1.645,1.663,99.23476,-2.65,-1.451,79.05,0,109.7,13.38,-1.91,51.8
"2016-03-24 00:04:00",1484579,6.67,82.2,8.5,1.356,3.647,99.23333,-2.654,-1.418,79.04,0,109.7,13.39,-1.91,44.2
"2016-03-24 00:04:30",1484580,6.345,87.7,7.329,1.34,4.407,99.22258,-2.681,-1.371,79.17,0,109.7,13.39,-1.94,49.7
"2016-03-24 00:05:00",1484581,6.124,92.3,6.932,1.322,4.657,99.21862,-2.691,-1.371,79.28,0,109.7,13.39,-1.95,54.3
"2016-03-24 00:05:30",1484582,5.562,92.5,7.436,1.25,4.62,99.21833,-2.692,-1.366,79.37,0,109.7,13.39,-1.95,54.5
"2016-03-24 00:06:00",1484583,5.715,88,10.68,1.291,3.836,99.21805,-2.692,-1.427,79.42,0,109.7,13.39,-1.95,50.0
"2016-03-24 00:06:30",1484584,5.28,79.21,8.86,1.444,2.822,99.21578,-2.698,-1.429,79.53,0,109.7,13.39,-1.96,41.2
"2016-03-24 00:07:00",1484585,5.133,87.2,4.306,0.83,1.135,99.21181,-2.708,-1.619,79.45,0,109.7,13.39,-1.97,49.2
"2016-03-24 00:07:30",1484586,5.287,97.6,8.03,1.458,3.689,99.20842,-2.717,-1.392,79.73,0,109.7,13.39,-1.97,59.6
"2016-03-24 00:08:00",1484587,4.96,89.3,7.103,1.367,4.072,99.20558,-2.724,-1.399,79.82,0,109.7,13.39,-1.98,51.3
"2016-03-24 00:08:30",1484588,5.677,92.5,8.29,1.322,4.715,99.20388,-2.729,-1.388,79.94,0,109.7,13.38,-1.99,54.5
"2016-03-24 00:09:00",1484589,5.833,84.6,8.36,1.525,4.532,99.20444,-2.727,-1.388,80.1,0,109.7,13.38,-1.98,46.6
"2016-03-24 00:09:30",1484590,5.767,89.2,9.6,1.244,4.816,99.20499,-2.726,-1.382,80.2,0,109.6,13.38,-1.98,51.2
"2016-03-24 00:10:00",1484591,4.631,96.9,10.26,1.245,2.78,99.20444,-2.727,-1.494,80.2,0,109.6,13.38,-1.98,58.9
"2016-03-24 00:10:30",1484592,3.487,92.2,4.987,0.325,0.217,99.20556,-2.724,-1.64,80.1,0,109.7,13.43,-1.98,54.2
"2016-03-24 00:11:00",1484593,3.119,94.9,5.589,0.361,0.104,99.2078,-2.719,-1.607,80.3,0,109.7,13.43,-1.98,56.9
"2016-03-24 00:11:30",1484594,4.908,91.5,10.94,1.297,4.146,99.20695,-2.721,-1.427,80.5,0,109.7,13.38,-1.98,53.5
"2016-03-24 00:12:00",1484595,4.835,86,10,1.259,4.643,99.19959,-2.739,-1.418,80.7,0,109.6,13.39,-2.00,48.0
"2016-03-24 00:12:30",1484596,4.943,93.4,6.956,1.241,5.102,99.19505,-2.751,-1.384,80.8,0,109.6,13.39,-2.01,55.4
"2016-03-24 00:13:00",1484597,5.777,93.5,7.308,1.259,3.982,99.19335,-2.755,-1.424,80.9,0,109.6,13.39,-2.01,55.5
"2016-03-24 00:13:30",1484598,4.337,74.83,8.98,1.189,2.026,99.19334,-2.755,-1.516,80.8,0,109.6,13.39,-2.01,36.8
"2016-03-24 00:14:00",1484599,3.554,79.81,8.93,0.527,0.745,99.18909,-2.766,-1.644,80.8,0,109.6,13.44,-2.02,41.8
"2016-03-24 00:14:30",1484600,5.103,90.1,10.78,1.344,3.34,99.18145,-2.786,-1.543,81,0,109.6,13.39,-2.04,52.1
"2016-03-24 00:15:00",1484601,4.664,86.2,12.87,1.395,3.948,99.17777,-2.795,-1.453,81.1,0,109.6,13.4,-2.05,48.2
"2016-03-24 00:15:30",1484602,5.777,82.1,11.14,1.373,4.725,99.17607,-2.799,-1.437,81.2,0,109.6,13.4,-2.06,44.1
"2016-03-24 00:16:00",1484603,6.016,88.4,11.22,1.349,4.205,99.17748,-2.796,-1.455,81.2,0,109.6,13.4,-2.05,50.4
"2016-03-24 00:16:30",1484604,4.829,84,6.925,1.345,2.905,99.17832,-2.794,-1.514,81.2,0,109.6,13.4,-2.05,46.0
"2016-03-24 00:17:00",1484605,4.932,84.1,9.4,1.458,3.446,99.18057,-2.788,-1.533,81.3,0,109.6,13.4,-2.05,46.1
"2016-03-24 00:17:30",1484606,4.978,81.5,7.288,1.389,3.19,99.18057,-2.788,-1.532,81.4,0,109.6,13.4,-2.05,43.5
"2016-03-24 00:18:00",1484607,5.05,74.35,6.999,1.171,2.189,99.18198,-2.784,-1.633,81.3,0,109.6,13.4,-2.04,36.3
"2016-03-24 00:18:30",1484608,5.345,75.75,6.884,1.328,3.643,99.17545,-2.801,-1.511,81.5,0,109.6,13.4,-2.06,37.8
"2016-03-24 00:19:00",1484609,5.811,74.87,6.679,1.333,3.544,99.16809,-2.82,-1.512,81.6,0,109.6,13.4,-2.08,36.9
"2016-03-24 00:19:30",1484610,5.602,72.32,7.18,1.385,2.934,99.16611,-2.825,-1.515,81.7,0,109.6,13.4,-2.08,34.3
"2016-03-24 00:20:00",1484611,5.508,76.72,6.706,1.381,3.005,99.16695,-2.823,-1.57,81.7,0,109.6,13.4,-2.08,38.7
"2016-03-24 00:20:30",1484612,4.86,76.24,6.816,1.32,2.995,99.16496,-2.828,-1.578,81.8,0,109.6,13.4,-2.09,38.2
"2016-03-24 00:21:00",1484613,5.375,82.2,6.961,1.286,3.997,99.15958,-2.841,-1.557,81.9,0,109.6,13.4,-2.10,44.2
"2016-03-24 00:21:30",1484614,5.008,75.89,6.435,1.38,2.619,99.15421,-2.855,-1.549,82,0,109.6,13.4,-2.11,37.9
"2016-03-24 00:22:00",1484615,5.805,77.05,6.846,1.376,3.064,99.15166,-2.862,-1.615,82,0,109.6,13.4,-2.12,39.1
"2016-03-24 00:22:30",1484616,6.496,79.07,6.888,1.325,3.661,99.15052,-2.864,-1.561,82.2,0,109.6,13.4,-2.12,41.1
"2016-03-24 00:23:00",1484617,6.425,80.3,7.472,1.25,4.263,99.15052,-2.864,-1.496,82.3,0,109.6,13.4,-2.12,42.3
"2016-03-24 00:23:30",1484618,5.69,83,10.18,1.462,3.819,99.15052,-2.864,-1.541,82.4,0,109.6,13.4,-2.12,45.0
"2016-03-24 00:24:00",1484619,6.876,79.39,7.139,1.259,4.169,99.15052,-2.864,-1.537,82.5,0,109.6,13.4,-2.12,41.4
"2016-03-24 00:24:30",1484620,7.014,79.32,7.01,1.287,3.877,99.15052,-2.864,-1.53,82.6,0,109.6,13.4,-2.12,41.3
"2016-03-24 00:25:00",1484621,6.397,77.48,6.228,1.492,2.948,99.14769,-2.872,-1.634,82.6,0,109.6,13.39,-2.13,39.5
"2016-03-24 00:25:30",1484622,6.337,76.67,7.737,1.296,2.936,99.13721,-2.898,-1.583,82.7,0,109.6,13.39,-2.16,38.7
"2016-03-24 00:26:00",1484623,6.716,80.9,6.507,1.325,4.087,99.12674,-2.925,-1.615,82.8,0,109.6,13.39,-2.18,42.9
"2016-03-24 00:26:30",1484624,6.59,80.7,6.562,1.322,4.072,99.12022,-2.942,-1.565,82.9,0,109.6,13.39,-2.20,42.7
"2016-03-24 00:27:00",1484625,6.379,83.9,6.62,1.281,4.268,99.11655,-2.951,-1.57,83,0,109.6,13.39,-2.21,45.9
"2016-03-24 00:27:30",1484626,6.765,84.8,6.661,1.312,4.583,99.11655,-2.951,-1.551,83.1,0,109.6,13.39,-2.21,46.8
"2016-03-24 00:28:00",1484627,5.561,87.7,7.541,1.51,3.493,99.11655,-2.951,-1.573,83.1,0,109.6,13.39,-2.21,49.7
"2016-03-24 00:28:30",1484628,5.793,80.9,10.7,1.32,2.913,99.11682,-2.95,-1.718,83,0,109.6,13.39,-2.21,42.9
"2016-03-24 00:29:00",1484629,4.77,81.7,7.357,1.006,1.961,99.11682,-2.95,-1.68,83.1,0,109.6,13.39,-2.21,43.7
"2016-03-24 00:29:30",1484630,6.443,84.1,6.405,1.142,4.24,99.11059,-2.966,-1.646,83.2,0,109.6,13.4,-2.22,46.1
"2016-03-24 00:30:00",1484631,6.644,77.97,6.638,1.305,4.506,99.10265,-2.986,-1.623,83.3,0,109.6,13.4,-2.24,40.0
"2016-03-24 00:30:30",1484632,6.683,74.97,7.104,1.331,4.091,99.10149,-2.989,-1.668,83.3,0,109.6,13.4,-2.25,37.0
"2016-03-24 00:31:00",1484633,7.127,72.72,6.582,1.356,4.4,99.09978,-2.994,-1.624,83.3,0,109.6,13.4,-2.25,34.7
"2016-03-24 00:31:30",1484634,7.002,73.78,8.03,1.268,4.442,99.09355,-3.01,-1.616,83.4,0,109.6,13.4,-2.27,35.8
"2016-03-24 00:32:00",1484635,7.029,86.1,7.542,1.273,4.323,99.09437,-3.008,-1.628,83.3,0,109.6,13.4,-2.27,48.1
"2016-03-24 00:32:30",1484636,6.741,87.1,7.832,1.349,4.604,99.09408,-3.008,-1.63,83.4,0,109.6,13.4,-2.27,49.1
"2016-03-24 00:33:00",1484637,7.44,79.9,6.358,1.266,4.116,99.09631,-3.003,-1.643,83.4,0,109.6,13.4,-2.26,41.9
"2016-03-24 00:33:30",1484638,8.14,77.51,7.49,1.248,4.318,99.09688,-3.001,-1.663,83.4,0,109.6,13.4,-2.26,39.5
"2016-03-24 00:34:00",1484639,8.29,70.79,8.94,1.213,4.556,99.09856,-2.997,-1.655,83.5,0,109.6,13.4,-2.26,32.8
"2016-03-24 00:34:30",1484640,7.583,70.15,7.647,1.328,4.328,99.09969,-2.994,-1.618,83.5,0,109.6,13.4,-2.25,32.2
"2016-03-24 00:35:00",1484641,8.29,69.19,6.91,1.137,4.731,99.09996,-2.993,-1.647,83.5,0,109.6,13.4,-2.25,31.2
"2016-03-24 00:35:30",1484642,6.825,69.35,9.46,1.098,4.649,99.09969,-2.994,-1.666,83.5,0,109.6,13.4,-2.25,31.3
"2016-03-24 00:36:00",1484643,7.06,68.74,8.32,1.638,4.039,99.09969,-2.994,-1.65,83.5,0,109.6,13.4,-2.25,30.7
"2016-03-24 00:36:30",1484644,7.535,65.33,6.429,1.257,4.389,99.10052,-2.992,-1.659,83.5,0,109.6,13.4,-2.25,27.3
"2016-03-24 00:37:00",1484645,7.801,62.07,6.079,1.182,4.328,99.10136,-2.99,-1.681,83.5,0,109.6,13.4,-2.25,24.1
"2016-03-24 00:37:30",1484646,7.262,58.63,8,1.213,4.453,99.10108,-2.99,-1.703,83.6,0,109.6,13.41,-2.25,20.6
"2016-03-24 00:38:00",1484647,8.28,55.43,6.627,1.221,4.857,99.10193,-2.988,-1.65,83.6,0,109.6,13.41,-2.25,17.4
"2016-03-24 00:38:30",1484648,8.21,50.16,6.232,1.252,5.074,99.10417,-2.983,-1.686,83.6,0,109.6,13.41,-2.24,12.2
"2016-03-24 00:39:00",1484649,7.951,49.48,6.846,1.352,4.582,99.1053,-2.98,-1.69,83.5,0,109.6,13.41,-2.24,11.5
"2016-03-24 00:39:30",1484650,6.74,53.35,6.515,1.255,4.59,99.10782,-2.973,-1.683,83.4,0,109.6,13.41,-2.23,15.3
"2016-03-24 00:40:00",1484651,6.636,60.18,6.884,1.184,4.66,99.10867,-2.971,-1.669,83.4,0,109.6,13.41,-2.23,22.2
"2016-03-24 00:40:30",1484652,6.698,63.48,7.836,1.199,4.752,99.11094,-2.965,-1.695,83.5,0,109.6,13.41,-2.22,25.5
"2016-03-24 00:41:00",1484653,6.918,66.88,7.352,1.328,4.511,99.11574,-2.953,-1.673,83.5,0,109.6,13.41,-2.21,28.9
"2016-03-24 00:41:30",1484654,6.992,75.02,9.79,1.469,4.19,99.11349,-2.959,-1.652,83.6,0,109.6,13.41,-2.22,37.0
"2016-03-24 00:42:00",1484655,6.347,59.85,10.82,1.211,4.419,99.11489,-2.955,-1.691,83.6,0,109.6,13.41,-2.21,21.8
"2016-03-24 00:42:30",1484656,5.617,73.12,9.91,1.333,3.92,99.11121,-2.965,-1.668,83.6,0,109.6,13.41,-2.22,35.1
"2016-03-24 00:43:00",1484657,4.89,66.7,6.705,1.546,2.12,99.11093,-2.965,-1.76,83.5,0,109.6,13.41,-2.22,28.7
"2016-03-24 00:43:30",1484658,3.624,61.84,6.812,1.1,1.428,99.10979,-2.968,-1.818,83.6,0,109.6,13.41,-2.23,23.8
"2016-03-24 00:44:00",1484659,4.401,53.85,5.08,1.06,2.202,99.1095,-2.969,-1.824,83.6,0,109.6,13.41,-2.23,15.8
"2016-03-24 00:44:30",1484660,5.66,66.83,8.14,1.301,4.171,99.11063,-2.966,-1.677,83.7,0,109.6,13.41,-2.22,28.8
"2016-03-24 00:45:00",1484661,4.866,59.14,6.718,1.366,4.148,99.11175,-2.963,-1.682,83.8,0,109.6,13.41,-2.22,21.1
"2016-03-24 00:45:30",1484662,4.736,71.59,11.03,1.223,4.318,99.11288,-2.96,-1.709,83.8,0,109.5,13.41,-2.22,33.6
"2016-03-24 00:46:00",1484663,4.714,50.38,10.66,1.296,3.157,99.11428,-2.957,-1.697,83.8,0,109.5,13.41,-2.22,12.4
"2016-03-24 00:46:30",1484664,4.364,49.01,12.83,1.912,2.959,99.11568,-2.953,-1.785,83.8,0,109.5,13.41,-2.21,11.0
"2016-03-24 00:47:00",1484665,4.357,49.99,5.769,1.27,2.452,99.11369,-2.958,-1.747,83.9,0,109.5,13.42,-2.22,12.0
"2016-03-24 00:47:30",1484666,4.194,50.1,11.82,1.408,2.949,99.10491,-2.981,-1.74,83.9,0,109.5,13.42,-2.24,12.1
"2016-03-24 00:48:00",1484667,5.168,61.08,11.8,1.444,3.968,99.09868,-2.997,-1.721,83.9,0,109.5,13.42,-2.26,23.1
"2016-03-24 00:48:30",1484668,4.68,64.48,12.53,1.33,3.95,99.0984,-2.997,-1.717,84,0,109.5,13.42,-2.26,26.5
"2016-03-24 00:49:00",1484669,5.133,62.14,12.4,1.297,4.256,99.09811,-2.998,-1.731,84,0,109.5,13.42,-2.26,24.1
"2016-03-24 00:49:30",1484670,4.34,36.86,8.35,1.438,3.829,99.08933,-3.02,-1.808,84,0,109.5,13.42,-2.28,358.9
"2016-03-24 00:50:00",1484671,3.167,34.27,6.699,1.141,1.944,99.08367,-3.035,-1.836,84,0,109.5,13.42,-2.29,356.3
"2016-03-24 00:50:30",1484672,3.088,36.71,5.778,1.187,1.86,99.08226,-3.038,-1.853,84.1,0,109.5,13.42,-2.30,358.7
"2016-03-24 00:51:00",1484673,4.129,40.3,7.456,1.437,3.867,99.08226,-3.038,-1.794,84.1,0,109.5,13.42,-2.30,2.3
"2016-03-24 00:51:30",1484674,4.756,46.73,7.115,1.3,3.317,99.07744,-3.051,-1.81,84.2,0,109.5,13.42,-2.31,8.7
"2016-03-24 00:52:00",1484675,5.273,49.56,7.872,1.4,4.56,99.06583,-3.08,-1.77,84.3,0,109.5,13.42,-2.34,11.6
"2016-03-24 00:52:30",1484676,5.062,50.49,7.339,1.339,3.837,99.06497,-3.082,-1.773,84.3,0,109.5,13.42,-2.34,12.5
"2016-03-24 00:53:00",1484677,5.243,50.79,7.432,1.322,3.94,99.05903,-3.098,-1.794,84.3,0,109.5,13.42,-2.36,12.8
"2016-03-24 00:53:30",1484678,4.729,45.01,7.46,1.401,2.899,99.04911,-3.123,-1.89,84.3,0,109.5,13.42,-2.38,7.0
"2016-03-24 00:54:00",1484679,4.432,54.56,11.48,1.483,3.268,99.04826,-3.125,-1.794,84.4,0,109.5,13.42,-2.38,16.6
"2016-03-24 00:54:30",1484680,5.422,47.75,6.713,1.358,3.969,99.04855,-3.124,-1.893,84.4,0,109.5,13.42,-2.38,9.8
"2016-03-24 00:55:00",1484681,4.766,44.91,7.132,1.384,4.556,99.04514,-3.133,-1.813,84.5,0,109.5,13.42,-2.39,6.9
"2016-03-24 00:55:30",1484682,4.647,50.99,12.94,1.378,4.072,99.03493,-3.159,-1.834,84.5,0,109.5,13.42,-2.42,13.0
"2016-03-24 00:56:00",1484683,4.505,55.2,7.907,1.423,3.624,99.03349,-3.163,-1.878,84.5,0,109.5,13.42,-2.42,17.2
"2016-03-24 00:56:30",1484684,4.387,55.37,12.2,1.17,2.566,99.03489,-3.159,-1.906,84.6,0,109.5,13.42,-2.42,17.4
"2016-03-24 00:57:00",1484685,5.392,59.35,8.31,1.494,3.88,99.03402,-3.161,-1.937,84.6,0,109.5,13.42,-2.42,21.3
"2016-03-24 00:57:30",1484686,5.856,54.81,7.359,1.433,4.364,99.02862,-3.175,-1.848,84.8,0,109.5,13.42,-2.43,16.8
"2016-03-24 00:58:00",1484687,5.021,64.97,7.554,1.325,4.077,99.02493,-3.184,-1.874,84.8,0,109.5,13.42,-2.44,27.0
"2016-03-24 00:58:30",1484688,5.345,56.88,7.061,1.205,4.79,99.02746,-3.178,-1.872,84.9,0,109.5,13.42,-2.44,18.9
"2016-03-24 00:59:00",1484689,3.625,42.86,8.69,1.462,2.829,99.02519,-3.184,-1.959,84.8,0,109.5,13.42,-2.44,4.9
"2016-03-24 00:59:30",1484690,3.184,49.38,4.926,1.237,2.051,99.0195,-3.198,-1.994,84.8,0,109.5,13.42,-2.46,11.4
"2016-03-24 01:00:00",1484691,4.026,50.44,7.303,1.122,2.311,99.01411,-3.212,-2.051,84.8,0,109.5,13.42,-2.47,12.4
"2016-03-24 01:00:30",1484692,4.729,55.22,6.418,1.324,4.156,99.01354,-3.213,-1.918,85,0,109.5,13.42,-2.47,17.2
"2016-03-24 01:01:00",1484693,4.367,61.11,6.594,1.285,4.379,99.00816,-3.227,-1.914,85.1,0,109.5,13.42,-2.49,23.1
"2016-03-24 01:01:30",1484694,4.137,53.39,6.621,1.331,3.925,99.00022,-3.247,-1.949,85.1,0,109.5,13.42,-2.51,15.4
"2016-03-24 01:02:00",1484695,3.912,56.25,6.835,1.284,2.344,98.9988,-3.251,-2.01,85.1,0,109.5,13.42,-2.51,18.2
"2016-03-24 01:02:30",1484696,3.498,64.02,7.809,1.548,2.237,98.99879,-3.251,-2.075,85.1,0,109.5,13.41,-2.51,26.0
"2016-03-24 01:03:00",1484697,3.64,59.41,8.84,1.324,2.955,99.00075,-3.246,-2.01,85.2,0,109.4,13.42,-2.51,21.4
"2016-03-24 01:03:30",1484698,4.291,50.36,7.68,1.331,4.12,99.00075,-3.246,-1.954,85.3,0,109.5,13.42,-2.51,12.4
"2016-03-24 01:04:00",1484699,4.501,51.22,5.952,1.349,3.586,99.00075,-3.246,-1.952,85.3,0,109.6,13.43,-2.51,13.2
"2016-03-24 01:04:30",1484700,4.584,53.34,10.08,1.304,4.11,98.99706,-3.255,-1.991,85.4,0,109.5,13.43,-2.51,15.3
"2016-03-24 01:05:00",1484701,3.475,54.56,6.786,1.116,2.12,98.9863,-3.283,-2.062,85.3,0,109.5,13.43,-2.54,16.6
"2016-03-24 01:05:30",1484702,4.682,52.62,7.575,1.276,4.36,98.98264,-3.292,-2.036,85.4,0,109.5,13.43,-2.55,14.6
"2016-03-24 01:06:00",1484703,4.952,46.75,7.403,1.524,3.846,98.98264,-3.292,-1.998,85.5,0,109.5,13.43,-2.55,8.8
"2016-03-24 01:06:30",1484704,4.911,55.35,6.778,1.293,4.306,98.98177,-3.294,-2.005,85.5,0,109.5,13.43,-2.55,17.3
"2016-03-24 01:07:00",1484705,4.851,51.11,8.77,1.24,3.991,98.97354,-3.315,-2.02,85.5,0,109.5,13.43,-2.58,13.1
"2016-03-24 01:07:30",1484706,5.056,49.03,6.617,1.325,3.69,98.97041,-3.323,-2.111,85.5,0,109.5,13.43,-2.58,11.0
"2016-03-24 01:08:00",1484707,4.542,47.35,6.424,1.301,2.91,98.97237,-3.318,-2.063,85.6,0,109.5,13.43,-2.58,9.3
"2016-03-24 01:08:30",1484708,4.261,46.85,6.562,1.384,3.208,98.97208,-3.319,-2.064,85.7,0,109.5,13.43,-2.58,8.8
"2016-03-24 01:09:00",1484709,4.88,53.05,6.523,1.306,4.589,98.97124,-3.321,-2.026,85.7,0,109.5,13.43,-2.58,15.0
"2016-03-24 01:09:30",1484710,4.052,54.69,8.28,1.363,4.155,98.96696,-3.332,-2.051,85.8,0,109.5,13.43,-2.59,16.7
"2016-03-24 01:10:00",1484711,4.257,52.12,7.317,1.347,3.153,98.95874,-3.353,-2.067,85.8,0,109.5,13.43,-2.61,14.1
"2016-03-24 01:10:30",1484712,4.148,48.17,9.33,1.237,2.187,98.95789,-3.355,-2.195,85.7,0,109.5,13.43,-2.62,10.2
"2016-03-24 01:11:00",1484713,4.457,49.06,6.935,1.285,3.612,98.95703,-3.357,-2.137,85.8,0,109.5,13.43,-2.62,11.1
"2016-03-24 01:11:30",1484714,4.442,47.81,7.251,1.366,3.295,98.95081,-3.373,-2.122,85.9,0,109.5,13.43,-2.63,9.8
"2016-03-24 01:12:00",1484715,4.556,51.26,6.737,1.356,4.399,98.9454,-3.387,-2.084,85.9,0,109.5,13.43,-2.65,13.3
"2016-03-24 01:12:30",1484716,4.19,50.88,7.989,1.314,3.899,98.94173,-3.396,-2.132,86,0,109.5,13.43,-2.66,12.9
"2016-03-24 01:13:00",1484717,3.777,46.73,7.455,1.401,2.565,98.94173,-3.396,-2.208,85.9,0,109.5,13.43,-2.66,8.7
"2016-03-24 01:13:30",1484718,3.591,49.96,6.511,1.255,2.59,98.94116,-3.398,-2.168,86,0,109.5,13.43,-2.66,12.0
"2016-03-24 01:14:00",1484719,3.362,53.73,6.282,1.297,2.206,98.93974,-3.401,-2.331,85.9,0,109.5,13.43,-2.66,15.7
"2016-03-24 01:14:30",1484720,4.219,53.65,7.221,1.319,4.075,98.93182,-3.422,-2.101,86.2,0,109.5,13.44,-2.68,15.7
"2016-03-24 01:15:00",1484721,4.281,50.21,6.503,1.313,4.179,98.92838,-3.43,-2.112,86.2,0,109.5,13.43,-2.69,12.2
"2016-03-24 01:15:30",1484722,4.383,51.65,6.89,1.338,3.838,98.92216,-3.446,-2.112,86.2,0,109.5,13.43,-2.71,13.7
"2016-03-24 01:16:00",1484723,3.913,48.84,6.551,1.329,2.551,98.92271,-3.445,-2.267,86.1,0,109.5,13.43,-2.70,10.8
"2016-03-24 01:16:30",1484724,3.462,50.38,8.12,1.239,2.04,98.91902,-3.454,-2.241,86.2,0,109.5,13.43,-2.71,12.4
"2016-03-24 01:17:00",1484725,3.645,47.14,7.191,1.269,2.479,98.91477,-3.465,-2.214,86.3,0,109.5,13.43,-2.73,9.1
"2016-03-24 01:17:30",1484726,4.609,52.48,6.603,1.29,4.073,98.91193,-3.472,-2.18,86.3,0,109.5,13.43,-2.73,14.5
"2016-03-24 01:18:00",1484727,4.788,50.4,6.673,1.303,4.31,98.91165,-3.473,-2.168,86.4,0,109.5,13.43,-2.73,12.4
"2016-03-24 01:18:30",1484728,4.007,56.35,6.741,1.45,3.162,98.91165,-3.473,-2.26,86.3,0,109.5,13.43,-2.73,18.3
"2016-03-24 01:19:00",1484729,3.794,53.44,8.41,1.361,3.279,98.90994,-3.477,-2.26,86.4,0,109.5,13.43,-2.74,15.4
"2016-03-24 01:19:30",1484730,3.074,43.8,4.032,0.85,1.545,98.90088,-3.5,-2.342,86.4,0,109.5,13.43,-2.76,5.8
"2016-03-24 01:20:00",1484731,3.983,45.79,7.001,1.31,3.403,98.89578,-3.513,-2.231,86.5,0,109.5,13.43,-2.77,7.8
"2016-03-24 01:20:30",1484732,4.057,45.48,6.893,1.379,4.103,98.89068,-3.526,-2.226,86.6,0,109.5,13.44,-2.79,7.5
"2016-03-24 01:21:00",1484733,4.092,44.36,7.056,1.3,3.952,98.88189,-3.549,-2.237,86.6,0,109.5,13.44,-2.81,6.4
"2016-03-24 01:21:30",1484734,3.809,47.05,7.548,1.361,3.478,98.87849,-3.557,-2.236,86.6,0,109.5,13.44,-2.82,9.0
"2016-03-24 01:22:00",1484735,3.82,45.33,7.538,1.371,2.983,98.87793,-3.559,-2.259,86.6,0,109.5,13.44,-2.82,7.3
"2016-03-24 01:22:30",1484736,2.45,40.8,4.477,0.643,0.808,98.87793,-3.559,-2.402,86.5,0,109.5,13.44,-2.82,2.8
"2016-03-24 01:23:00",1484737,4.031,52.98,7.849,1.249,3.713,98.87793,-3.559,-2.278,86.7,0,109.5,13.44,-2.82,15.0
"2016-03-24 01:23:30",1484738,4.576,52.01,6.667,1.382,3.978,98.87395,-3.569,-2.262,86.8,0,109.5,13.44,-2.83,14.0
"2016-03-24 01:24:00",1484739,4.717,53.63,6.715,1.308,4.28,98.86376,-3.595,-2.255,86.8,0,109.5,13.44,-2.86,15.6
"2016-03-24 01:24:30",1484740,5.044,51.82,6.552,1.29,4.484,98.86093,-3.602,-2.267,86.9,0,109.5,13.44,-2.86,13.8
"2016-03-24 01:25:00",1484741,4.886,49.63,6.435,1.376,3.571,98.86008,-3.604,-2.334,86.8,0,109.5,13.45,-2.87,11.6
"2016-03-24 01:25:30",1484742,4.315,50.51,7.707,1.285,3.313,98.8612,-3.602,-2.275,86.9,0,109.5,13.45,-2.86,12.5
"2016-03-24 01:26:00",1484743,4.482,48.75,7.256,1.342,3.207,98.86063,-3.603,-2.398,86.9,0,109.5,13.45,-2.86,10.8
"2016-03-24 01:26:30",1484744,3.62,49.83,6.456,1.143,2.61,98.86059,-3.603,-2.362,87,0,109.5,13.45,-2.86,11.8
"2016-03-24 01:27:00",1484745,4.303,48.85,6.667,1.314,2.945,98.85182,-3.625,-2.363,87,0,109.5,13.45,-2.89,10.8
"2016-03-24 01:27:30",1484746,4.81,49.3,6.409,1.324,4.046,98.84897,-3.633,-2.312,87.1,0,109.5,13.45,-2.89,11.3
"2016-03-24 01:28:00",1484747,4.929,53.71,6.367,1.302,4.146,98.85149,-3.626,-2.36,87.1,0,109.5,13.45,-2.89,15.7
"2016-03-24 01:28:30",1484748,4.654,50.29,6.853,1.327,4.159,98.85262,-3.623,-2.302,87.2,0,109.5,13.45,-2.88,12.3
"2016-03-24 01:29:00",1484749,4.475,51.06,6.081,1.324,3.548,98.85262,-3.623,-2.392,87.1,0,109.5,13.45,-2.88,13.1
"2016-03-24 01:29:30",1484750,4.319,48.31,7.002,1.3,3.25,98.85289,-3.623,-2.411,87.1,0,109.5,13.45,-2.88,10.3
"2016-03-24 01:30:00",1484751,3.924,44.57,7.135,1.363,3.208,98.85286,-3.623,-2.411,87.2,0,109.5,13.45,-2.88,6.6
"2016-03-24 01:30:30",1484752,4.063,44.73,7.116,1.404,3.693,98.84687,-3.638,-2.348,87.3,0,109.5,13.45,-2.90,6.7
"2016-03-24 01:31:00",1484753,4.231,52.17,8.25,1.277,3.586,98.84317,-3.647,-2.387,87.3,0,109.5,13.45,-2.91,14.2
"2016-03-24 01:31:30",1484754,3.509,55.66,7.083,1.271,2.817,98.84176,-3.651,-2.457,87.3,0,109.5,13.45,-2.91,17.7
"2016-03-24 01:32:00",1484755,4.287,56.29,7.162,1.264,4.445,98.84316,-3.647,-2.346,87.4,0,109.5,13.45,-2.91,18.3
"2016-03-24 01:32:30",1484756,3.564,49.34,6.384,1.278,2.467,98.84344,-3.647,-2.499,87.3,0,109.5,13.45,-2.91,11.3
"2016-03-24 01:33:00",1484757,3.718,52.19,6.966,1.378,2.919,98.84174,-3.651,-2.467,87.4,0,109.5,13.45,-2.91,14.2
"2016-03-24 01:33:30",1484758,3.799,56.59,8.28,1.363,3.275,98.83664,-3.664,-2.433,87.5,0,109.5,13.44,-2.92,18.6
"2016-03-24 01:34:00",1484759,4.24,58.5,7.578,1.272,3.541,98.83406,-3.671,-2.4,87.5,0,109.4,13.45,-2.93,20.5
"2016-03-24 01:34:30",1484760,3.15,56.2,6.87,1.363,2.773,98.83122,-3.678,-2.427,87.5,0,109.5,13.44,-2.94,18.2
"2016-03-24 01:35:00",1484761,3.495,59.18,7.196,1.293,2.825,98.83177,-3.676,-2.487,87.5,0,109.5,13.44,-2.94,21.2
"2016-03-24 01:35:30",1484762,2.671,58.7,7.827,1.237,2.282,98.82981,-3.681,-2.448,87.6,0,109.5,13.45,-2.94,20.7
"2016-03-24 01:36:00",1484763,3.026,62.07,9.35,1.182,2.692,98.83149,-3.677,-2.489,87.5,0,109.4,13.44,-2.94,24.1
"2016-03-24 01:36:30",1484764,3.87,49.03,8.36,1.31,3.124,98.83289,-3.674,-2.44,87.6,0,109.5,13.45,-2.93,11.0
"2016-03-24 01:37:00",1484765,3.038,42.41,6.14,1.2,3.008,98.8343,-3.67,-2.441,87.7,0,109.5,13.45,-2.93,4.4
"2016-03-24 01:37:30",1484766,3.474,47.46,8.91,1.469,2.94,98.83205,-3.676,-2.455,87.6,0,109.4,13.45,-2.94,9.5
"2016-03-24 01:38:00",1484767,2.732,61.22,8.81,1.341,2.632,98.83317,-3.673,-2.454,87.7,0,109.4,13.45,-2.93,23.2
"2016-03-24 01:38:30",1484768,3.197,48.76,7.242,1.277,3.31,98.83288,-3.674,-2.535,87.6,0,109.4,13.45,-2.93,10.8
"2016-03-24 01:39:00",1484769,2.734,41.35,6.54,1.161,1.686,98.82777,-3.687,-2.557,87.6,0,109.5,13.45,-2.95,3.3
"2016-03-24 01:39:30",1484770,4.017,47.19,6.65,1.401,3.825,98.81841,-3.71,-2.404,87.8,0,109.5,13.45,-2.97,9.2
"2016-03-24 01:40:00",1484771,3.36,48.57,7.645,1.361,2.906,98.81812,-3.711,-2.532,87.7,0,109.4,13.45,-2.97,10.6
"2016-03-24 01:40:30",1484772,3.379,46.49,6.983,1.36,3.131,98.81501,-3.719,-2.468,87.8,0,109.4,13.45,-2.98,8.5
"2016-03-24 01:41:00",1484773,3.233,45.47,6.164,1.282,2.248,98.8082,-3.736,-2.52,87.8,0,109.4,13.45,-3.00,7.5
"2016-03-24 01:41:30",1484774,3.905,51.48,8.66,1.367,3.792,98.80282,-3.75,-2.529,87.8,0,109.4,13.45,-3.01,13.5
"2016-03-24 01:42:00",1484775,3.471,38.85,8.61,1.381,3.069,98.80168,-3.753,-2.529,87.8,0,109.4,13.45,-3.01,0.8
"2016-03-24 01:42:30",1484776,3.327,38.27,7.889,1.27,3.273,98.80224,-3.752,-2.467,87.9,0,109.4,13.45,-3.01,0.3
"2016-03-24 01:43:00",1484777,2.492,34.82,9.3,1.28,2.199,98.80448,-3.746,-2.584,87.8,0,109.4,13.45,-3.01,356.8
"2016-03-24 01:43:30",1484778,2.7,41.08,6.372,1.185,1.954,98.80476,-3.745,-2.582,87.8,0,109.4,13.45,-3.01,3.1
"2016-03-24 01:44:00",1484779,3.406,53.45,7.248,1.309,3.095,98.8008,-3.755,-2.481,87.9,0,109.4,13.45,-3.02,15.5
"2016-03-24 01:44:30",1484780,2.977,63.75,7.674,1.36,2.646,98.79512,-3.77,-2.584,87.8,0,109.4,13.46,-3.03,25.8
"2016-03-24 01:45:00",1484781,2.771,62.46,6.702,1.292,3.151,98.78805,-3.788,-2.523,87.9,0,109.4,13.46,-3.05,24.5
"2016-03-24 01:45:30",1484782,2.683,47.32,6.518,1.266,1.977,98.78971,-3.784,-2.609,87.9,0,109.5,13.46,-3.04,9.3
"2016-03-24 01:46:00",1484783,2.409,44.19,5.124,1.146,1.712,98.7897,-3.784,-2.593,87.9,0,109.4,13.46,-3.04,6.2
"2016-03-24 01:46:30",1484784,3.125,54.12,6.631,1.273,3.304,98.78461,-3.797,-2.569,87.9,0,109.4,13.46,-3.06,16.1
"2016-03-24 01:47:00",1484785,2.339,43.8,7.002,1.32,1.919,98.7795,-3.81,-2.626,87.9,0,109.4,13.46,-3.07,5.8